User: anonymous   Login
Location: Vancouver
(49.2500°N, 123.1330°W)
Time: 10:12:49
(UTC-07:00)
Language:

Oscar 11 - Orbit

View from above orbital plane
View from above orbital plane
View from above satellite
View from above satellite

Ground track
Ground track

The orbit data is extracted from the following two-line orbital elements,

1 14781U 84021B   16274.50901328  .00000285  00000-0  41547-4 0  9994
2 14781  97.7376 323.2221 0007862 339.8545  20.2358 14.82799775751863
Epoch (UTC): 30 September 2016 12:12:58
Eccentricity: 0.0007862
inclination: 97.7376°
perigee height: 615 km
apogee height: 626 km
right ascension of ascending node: 323.2221°
argument of perigee: 339.8545°
revolutions per day: 14.82799775
mean anomaly at epoch: 20.2358°
orbit number at epoch: 75186

The dashed part of the orbit path shows where the satellite is in the earth's shadow,  

DLR